Regional Weather Roundup
Issued by NWS Sterling, VA

Home | Current Version | Previous Version | Graphics & Text | Print | Product List | Glossary On
Versions: 1 2 3 4 5 6 7 8 9 10 11 12 13 14 15 16 17 18 19 20 21 22 23 24 25 26 27 28 29 30 31 32 33 34 35 36 37 38 39 40 41 42 43 44 45 46 47 48 49 50
000
ASUS41 KLWX 302110
RWRLWX

REGIONAL WEATHER ROUNDUP
NATIONAL WEATHER SERVICE BALTIMORE MD/WASHINGTON DC
400 PM EST FRI JAN 30 2015

Note: "FAIR" indicates few or no clouds below 12,000 feet
with no significant weather and/or obstructions to visibility.
 TC=TEMPERATURE CELSIUS

 * =Non NWS site. Station does not report precipitation (e.g. rain,
    snow, etc.), thunder, or fog.

DCZ001-MDZ009-015-VAZ040>042-051-053>054-302200-
WASHINGTON METRO

CITY           SKY/WX    TMP DP  RH WIND       PRES   REMARKS
WASHINGTON NAT MOSUNNY   38  14  37 NW24G39   30.11R WCI  27
DULLES         MOSUNNY   32  12  43 NW21G37   30.13R WCI  20
ANDREWS AFB    MOSUNNY   34  13  42 W25G39    30.06R WCI  21
FT BELVOIR     MOSUNNY   36  13  38 NW14G31   30.12R WCI  27
QUANTICO       MOSUNNY   36  11  35 N26G40    30.14R WCI  24
COLLEGE PARK*  MOSUNNY   36  14  41 W18G30    30.09R WCI  25
LEESBURG*      MOSUNNY   32  18  55 NW17G38   30.13R WCI  21
MANASSAS*      PTSUNNY   34  12  40 NW28G39   30.12  WCI  20
GAITHERSBURG*  PTSUNNY   30  12  47 NW24G31   30.12R WCI  16

$$

MDZ006>007-011-014-302200-
BALTIMORE METRO

CITY           SKY/WX    TMP DP  RH WIND       PRES   REMARKS
BWI AIRPORT    MOSUNNY   34  13  41 NW18G26   30.06R WCI  23
MD SCIENCE CTR   N/A     33  13  43 MISG      30.07R
MARTIN STATE   MOSUNNY   37  18  44 W28G35    30.05R WCI  25
ANNAPOLIS      PTSUNNY   35  14  42 NW18G31   30.06R WCI  24
FORT MEADE*    MOSUNNY   34  14  44 NW17G29   30.09R WCI  23

$$

MDZ012-015-019>023-302200-
MARYLAND EASTERN SHORE

CITY           SKY/WX    TMP DP  RH WIND       PRES   REMARKS
OCEAN CITY     CLOUDY    39  21  48 NW22G28   29.96R WCI  29
SALISBURY      MOSUNNY   41  20  43 NW28G40   29.98R
BAY BRIDGE AP*   N/A     34  14  44 NW24G35   30.05R WCI  21
CAMBRIDGE*     SUNNY     37  19  48 NW20G26   30.02R WCI  27
EASTON*        PTSUNNY   39  19  45 NW18G35   30.06R

$$

MDZ017>025-302200-
SOUTHERN MARYLAND

CITY           SKY/WX    TMP DP  RH WIND       PRES   REMARKS
PATUXENT RIVER MOSUNNY   38  13  35 NW28G37   30.04R WCI  26
ST INIGOES     MOSUNNY   38  12  34 W20G30    30.04R WCI  28
LEONARDTOWN*   PTSUNNY   37  12  35 W16G24    30.06R WCI  28

$$

MDZ003>005-302200-
NORTH CENTRAL MARYLAND

CITY           SKY/WX    TMP DP  RH WIND       PRES   REMARKS
FREDERICK*     MOSUNNY   34  10  37 NW22G32   30.15R WCI  22
HAGERSTOWN APT MOSUNNY   27  11  51 NW23G30   30.13R WCI  12
WESTMINSTER*   MOSUNNY   28  12  50 NW20G29   30.06R WCI  15

$$

MDZ501>502-302200-
WESTERN MARYLAND

CITY           SKY/WX    TMP DP  RH WIND       PRES   REMARKS
OAKLAND*       CLOUDY    12  12 100 NW14G25   30.09R FOG     WCI  -3
CUMBERLAND*    MOSUNNY   27  10  50 NW7G25    30.26R

$$

VAZ025>031-302200-
SHENANDOAH VALLEY

CITY           SKY/WX    TMP DP  RH WIND       PRES   REMARKS
WINCHESTER*    PTSUNNY   30   9  40 NW22G29   30.16R WCI  17
FRONT ROYAL*   FAIR      32  12  43 NW10G22   30.14R WCI  24
LURAY*         FAIR      34  14  44 W20       30.16R WCI  22
NEW MARKET*    MOCLDY    31  10  42 N9G20     30.16R WCI  23
STAUNTON*      PTSUNNY   31   8  39 W18G25    30.17R WCI  19
WAYNESBORO*    MOCLDY    30   8  39 NW14G28   30.14R WCI  20

$$

WVZ021-048>050-054>055-302200-
EASTERN WEST VIRGINIA PANHANDLE

CITY           SKY/WX    TMP DP  RH WIND       PRES   REMARKS
MARTINSBURG    MOSUNNY   31  11  43 NW24G32   30.16R WCI  17
PETERSBURG*    PTSUNNY   26   8  46 NW13G24   30.23R WCI  15

$$

VAZ036>039-050-302200-
CENTRAL FOOTHILLS

CITY           SKY/WX    TMP DP  RH WIND       PRES   REMARKS
CHARLOTTESVILL MOSUNNY   34   8  33 NW16G24   30.15R WCI  24
CULPEPER*      SUNNY     36  10  35 NW16G22   30.14R WCI  26
ORANGE*        MOSUNNY   36  12  38 NW15G26   30.16R WCI  26
GORDONSVILLE*  MOCLDY    35   9  33 NW12G22   30.14R WCI  27
WARRENTON*     FAIR      36  20  51 NW21G28   30.13R WCI  25

$$

VAZ055>057-302200-
NORTH AND CENTRAL PIEDMONT

CITY           SKY/WX    TMP DP  RH WIND       PRES   REMARKS
FREDERICKSBRG* MOSUNNY   38  13  35 NW21G31   30.11R WCI  27
STAFFORD*      FAIR      35  10  34 NW16G36   30.17R WCI  25

$$

NCZ024-NYZ072-PAZ021-071-VAZ022-071-302200-
OTHER REGIONAL OBSERVATIONS

CITY           SKY/WX    TMP DP  RH WIND       PRES   REMARKS
NEW YORK CITY  MOSUNNY   36  15  42 NW16G33   29.87R WCI  26
PHILADELPHIA   FLURRIES  33  28  81 W20G25    29.97R WCI  21
PITTSBURGH     LGT SNOW  16   7  67 NW21      30.32R WCI  -1
ROANOKE        MOSUNNY   34   9  35 NW18G31   30.21R WCI  23
RICHMOND       PTSUNNY   41  15  35 NW24G32   30.08R
RALEIGH        MOSUNNY   46  13  26 NW14G22   30.12R

$$

ANZ530>537-302200-
MARINE OBSERVATIONS

STATION/POSITION TIME  TEMP    WIND        PRES
                       AIR SEA DIR/SP/G
                 (UTC) (F)     (DEG/KT/KT) (MB)
THOMAS PT LIGHT  2100   34 36  300/ 23/ 28 1018.3R
BALT KEY BRIDGE  2100   34     290/ 24/ 32 1017.2R
COVE POINT       2100   36     330/ 20/ 29 1016.8R
LEWISETTA        2100   38 37  330/ 21/ 28 1017.6R
SOLOMONS ISLAND  2100      37                N/A
PINEY POINT      2100          330/ 28/ 32   N/A

$$




USA.gov is the U.S. government's official web portal to all federal, state and local government web resources and services.